[[{"header":{"parameterUnit":"m.s-1","parameterCategory":1,"la1":30.2991,"la2":30.254,"lo1":-89.0895,"lo2":-89.0444,"dy":0.0017,"dx":0.0017,"nx":28,"ny":28,"refTime":"2024-03-17T21:00:00:Z","depth":0,"parameterNumber":2,"parameterNumberName":"U-component_of_WINDS"},"data":[0,0,0,0,0,0,0,0,0,0,0,0,0,0,0,0,0,0,0,0,0,0,0,0,0,0,0,0,0,0,0,0,0,0,0,0,0,0,0,0,0,0,0,0,0,0,0,0,0,0,0,0,0,0,0,0,0,0,1.2768,1.277,0,1.2881,1.2882,1.2883,1.2962,1.2962,1.2963,1.2963,1.3079,1.3082,1.3084,0,0,0,0,0,0,0,0,0,0,0,0,0,1.2622,1.2624,1.2768,1.277,1.2771,1.288,1.2882,1.2884,1.2962,1.2962,1.2963,1.2964,1.3078,1.3081,1.3084,0,0,0,0,0,0,0,0,0,0,0,0,0,1.2705,1.2625,1.2768,1.2823,1.2829,1.288,1.2882,1.2884,1.2961,1.2962,1.2963,1.2964,1.3077,1.3081,1.3085,1.309,0,0,1.3096,1.3098,0,0,0,0,0,0,0,0,1.27,1.271,1.2814,1.2819,1.2826,1.2908,1.2873,1.2953,1.2961,1.2911,1.2963,1.2965,1.3021,1.303,1.3049,1.3095,1.31,1.3097,1.3099,1.31,1.3102,0,0,0,0,0,0,0,1.2694,1.2706,1.2813,1.2815,1.2823,1.2842,1.2855,1.2888,1.296,1.2916,1.2922,1.2934,1.3025,1.3045,1.3052,1.3102,1.3096,1.31,1.3102,1.3104,1.3158,1.3157,0,0,0,0,0,0,1.268,1.27,1.2809,1.2816,1.2764,1.2844,1.2859,1.2881,1.296,1.2973,1.2933,1.2937,1.3038,1.3048,1.3057,1.3067,1.31,1.3104,1.3106,1.3158,1.3157,1.3156,0,0,0,0,0,0,1.2676,1.2689,1.2805,1.276,1.2776,1.2846,1.287,1.2883,1.2903,1.2973,1.2986,1.294,1.3039,1.3051,1.3081,1.3072,1.3106,1.3109,1.3159,1.3158,1.3157,1.3089,0,0,0,0,0,0,1.2672,1.2687,1.2689,1.2759,1.2778,1.2827,1.287,1.2884,1.2909,1.2915,1.2983,1.2995,1.3041,1.3075,1.3085,1.3078,1.3112,1.316,1.3159,1.3157,1.3092,1.3085,1.3079,0,0,0,0,0,1.2666,1.2666,1.2689,1.2702,1.2783,1.2826,1.2837,1.2889,1.2908,1.2911,1.2956,1.2993,1.3072,1.3077,1.3089,1.3083,1.3161,1.3159,1.3157,1.3095,1.3087,1.308,0,0,0,0,0,0,1.2593,1.2676,1.2703,1.2725,1.2768,1.2839,1.2845,1.2879,1.2917,1.2922,1.2986,1.3,1.3023,1.3057,1.3061,1.3092,1.3121,1.3121,1.3069,1.3062,1.3056,1.3047,1.3115,0,0,0,0,0,1.258,1.2608,1.2679,1.2692,1.2712,1.2774,1.2795,1.2832,1.2879,1.2897,1.2944,1.2988,1.3023,1.3045,1.3081,1.3098,1.3113,1.31,1.3093,1.3088,1.3087,1.3098,1.3092,1.315,1.315,1.315,0,0,1.2553,1.2601,1.2615,1.2679,1.2716,1.2743,1.2789,1.2816,1.2837,1.2902,1.2932,1.2968,1.3022,1.3044,1.3057,1.3073,1.3075,1.3086,1.3081,1.3083,1.3095,1.3089,1.3084,1.3149,1.3149,1.315,0,0,1.2516,1.2556,1.2571,1.2608,1.2663,1.2705,1.2708,1.2775,1.2801,1.2832,1.2881,1.2907,1.2966,1.3001,1.3027,1.3004,1.3039,1.3014,1.2981,1.2991,1.2986,1.2982,1.2973,1.2969,1.3014,1.3013,1.3013,0,1.2475,1.2518,1.2574,1.2599,1.2625,1.2684,1.2699,1.2732,1.2797,1.2814,1.2831,1.2905,1.2946,1.2977,1.2971,1.2991,1.2996,1.3006,1.2982,1.2979,1.2976,1.2968,1.2964,1.301,1.301,1.3011,1.3011,0,1.2464,1.2493,1.2499,1.2559,1.2586,1.2606,1.2665,1.2686,1.272,1.2759,1.279,1.2841,1.2888,1.2898,1.2932,1.2934,1.2943,1.297,1.3,1.2966,1.2959,1.2957,1.3005,1.3006,1.3007,1.3008,0,0,1.2385,1.2476,1.2477,1.2505,1.2571,1.2594,1.2617,1.2662,1.2678,1.2721,1.2741,1.2789,1.2815,1.2844,1.2883,1.2891,1.2868,1.2918,1.292,1.2906,1.2872,1.285,1.2845,1.2892,1.2892,1.2892,1.2867,0,1.2358,1.2401,1.2452,1.2477,1.2504,1.2561,1.258,1.2622,1.266,1.2689,1.2731,1.2763,1.2795,1.2813,1.2824,1.2868,1.2862,1.2871,1.291,1.2911,1.2894,1.2842,1.2819,1.2794,1.2865,1.2865,1.2865,0,1.2332,1.2371,1.2398,1.2462,1.2475,1.2491,1.2537,1.2564,1.2613,1.264,1.2672,1.2713,1.2739,1.2766,1.2803,1.2808,1.2827,1.2851,1.2852,1.2856,1.2885,1.2844,1.2787,1.2783,1.2861,1.2862,1.2862,0,1.227,1.233,1.2354,1.2376,1.245,1.246,1.2492,1.2542,1.2566,1.2606,1.2622,1.2664,1.2687,1.2719,1.277,1.2786,1.2801,1.2833,1.2823,1.2821,1.2823,1.2822,1.2766,1.2837,1.2837,1.2837,1.2837,0,1.2234,1.2248,1.2327,1.2341,1.2359,1.2418,1.2433,1.247,1.2514,1.2537,1.2589,1.2609,1.2677,1.2704,1.2745,1.2768,1.2779,1.2801,1.2811,1.2795,1.2792,1.2808,1.281,1.2836,1.2836,1.2837,1.2837,0,1.2166,1.222,1.225,1.2318,1.2335,1.2345,1.2403,1.2419,1.246,1.2488,1.2498,1.2561,1.2597,1.2652,1.2704,1.2731,1.2747,1.2765,1.273,1.2736,1.2723,1.2723,1.2675,1.2671,1.2745,1.2744,1.2743,0,1.2139,1.2151,1.222,1.2239,1.2269,1.2298,1.2323,1.2381,1.2405,1.2461,1.247,1.251,1.2545,1.2599,1.265,1.2689,1.2708,1.2688,1.2714,1.2698,1.2706,1.2704,1.2705,1.2682,1.2681,1.268,1.2679,0,1.2084,1.211,1.2143,1.2185,1.2213,1.2249,1.2288,1.23,1.2367,1.2391,1.2427,1.2454,1.2507,1.2545,1.2592,1.2625,1.2662,1.2671,1.267,1.2654,1.2632,1.2642,1.2712,1.2671,1.2672,1.2673,1.2673,1.2673,1.2036,1.2049,1.2099,1.2134,1.217,1.2204,1.2222,1.2265,1.2297,1.2344,1.2377,1.2411,1.246,1.2527,1.2558,1.2585,1.2602,1.2602,1.2601,1.26,1.2593,1.2629,1.2594,1.2594,1.2595,1.2595,1.2595,0,1.1983,1.2018,1.205,1.2102,1.2129,1.2163,1.2207,1.2228,1.2257,1.2299,1.2332,1.2374,1.2411,1.2465,1.2506,1.2518,1.2536,1.2527,1.2526,1.2532,1.2577,1.2572,1.2511,1.2511,1.2511,1.2511,1.2511,1.2511,1.1958,1.1982,1.2013,1.2055,1.209,1.2124,1.2146,1.2179,1.2213,1.2257,1.2288,1.2323,1.2369,1.2414,1.245,1.2465,1.2477,1.2461,1.2481,1.2522,1.2529,1.2537,1.2533,1.2464,1.2464,1.2434,1.2434,1.2434]},{"header":{"parameterUnit":"m.s-1","parameterCategory":1,"la1":30.2991,"la2":30.254,"lo1":-89.0895,"lo2":-89.0444,"dy":0.0017,"dx":0.0017,"nx":28,"ny":28,"refTime":"2024-03-17T21:00:00:Z","depth":0,"parameterNumber":3,"parameterNumberName":"V-component_of_WINDS"},"data":[0,0,0,0,0,0,0,0,0,0,0,0,0,0,0,0,0,0,0,0,0,0,0,0,0,0,0,0,0,0,0,0,0,0,0,0,0,0,0,0,0,0,0,0,0,0,0,0,0,0,0,0,0,0,0,0,0,0,1.3798,1.3797,0,1.3754,1.3754,1.3753,1.3774,1.3775,1.3776,1.3777,1.3728,1.3726,1.3723,0,0,0,0,0,0,0,0,0,0,0,0,0,1.3893,1.3891,1.3798,1.3797,1.3797,1.3755,1.3754,1.3753,1.3773,1.3775,1.3776,1.3777,1.3729,1.3726,1.3723,0,0,0,0,0,0,0,0,0,0,0,0,0,1.3851,1.3891,1.3798,1.3802,1.3802,1.3755,1.3754,1.3753,1.3773,1.3775,1.3776,1.3778,1.373,1.3726,1.3723,1.3668,0,0,1.3712,1.371,0,0,0,0,0,0,0,0,1.3853,1.3847,1.3802,1.3802,1.3801,1.3771,1.377,1.3724,1.3773,1.3784,1.3777,1.3779,1.3741,1.3736,1.3724,1.3665,1.3663,1.3712,1.3709,1.3708,1.3707,0,0,0,0,0,0,0,1.3856,1.3849,1.3781,1.3801,1.3801,1.3804,1.38,1.3761,1.3753,1.3783,1.3784,1.3779,1.3741,1.3728,1.3723,1.3663,1.3712,1.3709,1.3706,1.3705,1.3554,1.3552,0,0,0,0,0,0,1.386,1.3852,1.3782,1.3779,1.3832,1.3801,1.3796,1.3779,1.3754,1.3752,1.3778,1.378,1.3733,1.3727,1.3722,1.3654,1.3708,1.3705,1.3703,1.3556,1.3553,1.3551,0,0,0,0,0,0,1.3862,1.3853,1.3784,1.3816,1.3807,1.3798,1.3778,1.3777,1.3764,1.375,1.3748,1.3766,1.3734,1.3727,1.3681,1.3652,1.3703,1.37,1.3558,1.3555,1.3552,1.3518,0,0,0,0,0,0,1.3864,1.3854,1.3834,1.3815,1.3805,1.3745,1.3777,1.3775,1.3759,1.3762,1.3739,1.3736,1.3735,1.3686,1.3677,1.3648,1.3697,1.356,1.3556,1.3553,1.3522,1.3514,1.3508,0,0,0,0,0,1.3868,1.3826,1.3833,1.3824,1.3781,1.3743,1.3737,1.3738,1.3757,1.3735,1.3726,1.3737,1.3657,1.3681,1.3671,1.3641,1.3562,1.3558,1.3553,1.3525,1.3516,1.3508,0,0,0,0,0,0,1.384,1.3823,1.3831,1.3783,1.3764,1.3747,1.372,1.3729,1.3704,1.3707,1.3707,1.3702,1.3654,1.3643,1.367,1.3585,1.3612,1.3606,1.3594,1.3585,1.3579,1.3581,1.3694,0,0,0,0,0,1.3829,1.3801,1.3788,1.3746,1.3736,1.373,1.3714,1.3716,1.3696,1.3688,1.3675,1.3654,1.3624,1.3605,1.3577,1.3521,1.3515,1.3495,1.3489,1.3483,1.3477,1.3444,1.3434,1.3537,1.3537,1.3537,0,0,1.3804,1.3792,1.3774,1.374,1.3726,1.3695,1.3723,1.369,1.3667,1.3682,1.3638,1.3628,1.3605,1.3553,1.353,1.3543,1.3447,1.3478,1.3473,1.347,1.3438,1.3428,1.342,1.3534,1.3535,1.3535,0,0,1.3743,1.3732,1.3695,1.3681,1.366,1.3656,1.3647,1.3628,1.3622,1.3578,1.3588,1.356,1.3509,1.3491,1.3476,1.3407,1.3415,1.3398,1.3362,1.333,1.3322,1.3315,1.3287,1.3278,1.3393,1.3392,1.3392,0,1.3715,1.3671,1.3675,1.364,1.3624,1.3638,1.3599,1.3585,1.3555,1.3542,1.3558,1.3493,1.3479,1.3422,1.3405,1.3393,1.338,1.34,1.3323,1.3316,1.3309,1.3283,1.3273,1.339,1.3391,1.3391,1.3391,0,1.3635,1.3605,1.3577,1.3549,1.3529,1.3493,1.3489,1.3469,1.3473,1.3466,1.3419,1.3403,1.337,1.3358,1.3361,1.33,1.3309,1.3324,1.335,1.3297,1.3272,1.3263,1.3387,1.3388,1.3389,1.3389,0,0,1.3555,1.353,1.3519,1.3505,1.3483,1.3458,1.3422,1.3391,1.3372,1.3352,1.3319,1.3275,1.3289,1.3271,1.3272,1.3244,1.3188,1.3262,1.3261,1.3246,1.3117,1.3104,1.3092,1.3194,1.3192,1.3191,1.3118,0,1.349,1.3428,1.3429,1.337,1.334,1.3353,1.3321,1.3302,1.3295,1.3267,1.3259,1.3227,1.3249,1.3238,1.3211,1.32,1.3161,1.3206,1.3161,1.3159,1.3163,1.308,1.3066,1.2998,1.3109,1.3107,1.3106,0,1.3406,1.3383,1.3321,1.3302,1.3289,1.326,1.3231,1.3206,1.3184,1.3181,1.3161,1.3166,1.3126,1.3156,1.31,1.313,1.3112,1.3104,1.3101,1.3094,1.3127,1.3068,1.2977,1.2966,1.3091,1.3092,1.3093,0,1.335,1.3304,1.326,1.3248,1.3225,1.3204,1.3193,1.3174,1.3155,1.313,1.3117,1.3087,1.3069,1.3045,1.3041,1.3064,1.2983,1.3014,1.2977,1.2977,1.2957,1.2958,1.2859,1.295,1.2951,1.2951,1.2951,0,1.3276,1.3237,1.3234,1.3207,1.3162,1.3164,1.312,1.311,1.3093,1.3062,1.3072,1.3043,1.3041,1.301,1.3007,1.2959,1.2952,1.2946,1.2945,1.2944,1.2944,1.293,1.2933,1.2948,1.2949,1.2949,1.295,0,1.3205,1.3202,1.3155,1.3137,1.3132,1.3099,1.3083,1.3056,1.305,1.3011,1.3002,1.2992,1.2957,1.2951,1.2909,1.2906,1.2848,1.2854,1.2856,1.2855,1.2818,1.282,1.2704,1.2687,1.2792,1.2791,1.279,0,1.3157,1.3127,1.3106,1.3087,1.3075,1.3045,1.3025,1.3026,1.3005,1.2978,1.2953,1.2919,1.2891,1.2833,1.2821,1.2788,1.2791,1.2752,1.2786,1.2784,1.2786,1.2787,1.2783,1.2745,1.2744,1.2743,1.2742,0,1.307,1.307,1.3043,1.3015,1.2992,1.2969,1.2948,1.2931,1.2929,1.2904,1.2869,1.2847,1.2804,1.2769,1.2736,1.2723,1.273,1.2732,1.2721,1.2718,1.2719,1.2715,1.2835,1.2734,1.2735,1.2735,1.2736,1.2736,1.3007,1.298,1.2961,1.293,1.2914,1.2894,1.2867,1.2858,1.2828,1.2794,1.2796,1.2756,1.2734,1.2691,1.2675,1.2642,1.2654,1.264,1.2635,1.2631,1.2626,1.2727,1.2637,1.2637,1.2637,1.2637,1.2637,0,1.2919,1.2907,1.2879,1.2848,1.2823,1.2836,1.2812,1.2789,1.2754,1.2734,1.2706,1.2664,1.2629,1.2615,1.258,1.2556,1.2559,1.2547,1.2547,1.2543,1.2618,1.263,1.2545,1.2545,1.2545,1.2545,1.2545,1.2545,1.2869,1.2824,1.2821,1.2767,1.2755,1.2717,1.2702,1.2682,1.2666,1.2618,1.259,1.2581,1.2562,1.2526,1.2494,1.2491,1.2476,1.2462,1.2459,1.2529,1.2538,1.2547,1.2558,1.2459,1.2459,1.2387,1.2386,1.2385]}]]